Regional Weather Roundup
Issued by NWS

Home | Current Version | Previous Version | Text Only | Print | Product List | Glossary Off
Versions: 1 2 3 4 5 6 7 8 9 10 11 12 13 14 15 16 17 18 19 20 21 22 23 24 25 26 27 28 29 30 31 32 33 34 35 36 37 38 39 40 41 42 43 44 45 46 47 48 49 50

085
ASUS43 KFSD 231702
RWRSD

WEATHER ROUNDUP FOR SOUTH DAKOTA
NATIONAL WEATHER SERVICE SIOUX FALLS SD
1200 PM CDT THU MAR 23 2017

NOTE: "FAIR" INDICATES FEW OR NO CLOUDS BELOW 12,000 FEET WITH NO
SIGNIFICANT WEATHER AND/OR OBSTRUCTIONS TO VISIBILITY.


SDZ001>005-009-010-012>017-231800-
NORTHWEST AND NORTH CENTRAL SOUTH DAKOTA

CITY           SKY/WX    TMP DP  RH WIND       PRES   REMARKS
BUFFALO          N/A     47  41  80 NE13      29.64R
FAITH            N/A     51  40  65 N10       29.66R
MOBRIDGE       SUNNY     51  33  50 SE7       29.68F
$$

SDZ012>016-024>037-041>051-057-063-072>074-231800-
SOUTHWEST AND SOUTH CENTRAL SOUTH DAKOTA

CITY           SKY/WX    TMP DP  RH WIND       PRES   REMARKS
RAPID CTY ARPT SUNNY     57  42  57 N14       29.64S
PIERRE         SUNNY     55  37  50 S13       29.65F
CUSTER         SUNNY     58  37  45 CALM      29.68S
ELLSWORTH AFB  SUNNY     55  42  62 N14       29.65R
PHILIP         SUNNY     58  39  49 VRB3      29.63S
PINE RIDGE     SUNNY     58  41  53 VRB3      29.63F
SPEARFISH      FAIR      54  43  66 NW8       29.68S
WINNER         CLOUDY    53  43  68 S21G29    29.67F
$$

SDZ004>011-016>023-039-040-231800-
NORTHEAST SOUTH DAKOTA

CITY           SKY/WX    TMP DP  RH WIND       PRES   REMARKS
ABERDEEN       CLOUDY    43  29  57 S14       29.76S
WATERTOWN      CLOUDY    39  27  62 S18G25    29.78F
BROOKINGS      CLOUDY    40  27  59 SE23      29.81F
SISSETON         N/A     40  30  67 S17       29.81F
$$

SDZ017-020-022-023-036>040-048>070-231800-
SOUTHEAST SOUTH DAKOTA

CITY           SKY/WX    TMP DP  RH WIND       PRES   REMARKS
SIOUX FALLS    LGT RAIN  44  33  65 SE15G26   29.82F
HURON          CLOUDY    43  29  57 S15G23    29.77S
CHAMBERLAIN    CLOUDY    53  41  63 SE15      29.69F
MITCHELL       CLOUDY    45  34  65 S17G28    29.77F
YANKTON        CLOUDY    45  36  70 SE15      29.78F
$$

ABBREVIATIONS USED IN REMARKS
   TC - TEMPERATURE IN CELSIUS
  WCI - WIND CHILL INDEX
   HX - HEAT INDEX
  VSB - VISIBILITY





USA.gov is the U.S. government's official web portal to all federal, state and local government web resources and services.